Find Starlink 32013

NORAD ID: 60103 Int'l Des: 2024-117 Owner: SPXS Country: US Constellation: starlink operational
LEOCIRCULAR

現在のビュー

3D地球を読み込み中...

About Starlink 32013

Starlink 32013 (NORAD 60103) is a starlink constellation satellite (v2 mini) launched Jun 23, 2024 by SPXS of US. It operates in LEO, CIRCULAR orbit with a mass of 730.00 kg.

Starlink 32013について

説明を読み込み中...

次回通過

Passes for default location (London). Set your location on the main map for personalized predictions.

高度履歴

Loading altitude history...

軌道要素

1 60103U 24117N 26170.57695306 -.00002105 00000-0 -59003-4 0 9993
2 60103 53.1608 284.0275 0001050 89.8187 270.2934 15.30185213112482
Epoch: Jun 19, 2026 • Age: 40 hours

現在のステータス

高度 494.2 km
速度 7.62 km/s
衛星直下点 -52.49°S, 163.07°W
打ち上げ日 Jun 23, 2024
運用期間 1.9 years
タイプ internet

技術仕様

分類 Payload
質量 730.00 kg
乾燥質量 700.00 kg
総質量 730.00 kg
長さ 0.30 m
直径 4.10 m
スパン 29.00 m
形状 Box + pan
製造者 SPXS
バスタイプ Starlink V2M
フェーズステータス In Orbit
所有者/国 SPXS/US

Most Searched